EWG19W EDDS-EHRD

Flight info

Callsign EWG19W
Flight time 0h 59m
Altitude 24000
Route TAGIK2H TAGIK Z3 ABUMO N850 GISEM Z505 ARPEG/N0444F380 Z850 HMM L602 RKN
Aircraft A320/M-SDE3FGHIRWY/LB1

Departure

Time 2026-05-04 16:26
Airport Stuttgart Airport (EDDS)

Arrival

Time 2026-05-04 17:26
Airport Rotterdam The Hague Airport (EHRD)
Time Latitude Longitude Altitude Speed Heading
2026-05-04 16:05 48.68883 9.19359 1288 ft 0 kts 345°
2026-05-04 16:16 48.68867 9.19366 1288 ft 2 kts 345°
2026-05-04 16:16 48.68818 9.19381 1290 ft 2 kts 22°
2026-05-04 16:17 48.68803 9.19368 1291 ft 0 kts 73°
2026-05-04 16:21 48.68808 9.19392 1291 ft 5 kts 75°
2026-05-04 16:22 48.68845 9.19597 1285 ft 16 kts 75°
2026-05-04 16:22 48.68805 9.19928 1289 ft 9 kts 143°
2026-05-04 16:23 48.68675 9.19990 1286 ft 0 kts 163°
2026-05-04 16:24 48.68600 9.20151 1285 ft 15 kts 74°
2026-05-04 16:25 48.68610 9.20202 1285 ft 0 kts 73°
2026-05-04 16:26 48.69290 9.23828 1623 ft 172 kts 73°
2026-05-04 16:26 48.70285 9.29362 3279 ft 212 kts 70°
2026-05-04 16:27 48.71220 9.34114 4155 ft 258 kts 70°
2026-05-04 16:28 48.73342 9.41873 6700 ft 285 kts 40°
2026-05-04 16:28 48.79121 9.42945 9281 ft 298 kts 336°
2026-05-04 16:29 48.87238 9.36771 11480 ft 354 kts 327°
2026-05-04 16:30 48.91801 9.28283 13863 ft 352 kts 285°
2026-05-04 16:31 48.92710 9.20956 15254 ft 356 kts 276°
2026-05-04 16:31 48.94415 9.09831 17215 ft 373 kts 297°
2026-05-04 16:32 49.01197 9.04015 19025 ft 405 kts 353°
2026-05-04 16:33 49.06850 9.03158 20227 ft 409 kts 345°
2026-05-04 16:33 49.12439 9.01187 21371 ft 415 kts 344°
2026-05-04 16:34 49.18110 8.99153 22474 ft 422 kts 343°
2026-05-04 16:34 49.20972 8.98120 22994 ft 425 kts 343°
2026-05-04 16:35 49.29697 8.94961 24365 ft 434 kts 343°
2026-05-04 16:35 49.38601 8.91746 25551 ft 443 kts 343°
2026-05-04 16:36 49.41611 8.90653 25922 ft 446 kts 343°
2026-05-04 16:36 49.47691 8.88447 26685 ft 452 kts 343°
2026-05-04 16:37 49.53843 8.86220 27408 ft 457 kts 342°
2026-05-04 16:37 49.56948 8.85087 27775 ft 459 kts 342°
2026-05-04 16:37 49.63204 8.82798 28456 ft 464 kts 342°
2026-05-04 16:38 49.69516 8.80483 29127 ft 468 kts 342°
2026-05-04 16:39 49.79090 8.76979 30023 ft 474 kts 342°
2026-05-04 16:39 49.85536 8.74602 30501 ft 478 kts 342°
2026-05-04 16:40 49.91999 8.72214 31087 ft 476 kts 342°
2026-05-04 16:40 49.98430 8.69831 31706 ft 474 kts 342°
2026-05-04 16:41 50.04834 8.67453 32334 ft 472 kts 342°
2026-05-04 16:41 50.14383 8.63894 33299 ft 470 kts 342°
2026-05-04 16:42 50.23909 8.60321 34216 ft 468 kts 342°
2026-05-04 16:43 50.30229 8.57947 34761 ft 466 kts 342°
2026-05-04 16:43 50.36532 8.55575 35315 ft 465 kts 342°
2026-05-04 16:43 50.39670 8.54392 35561 ft 464 kts 342°
2026-05-04 16:44 50.52188 8.49638 36505 ft 462 kts 342°
2026-05-04 16:45 50.58431 8.47258 36926 ft 461 kts 342°
2026-05-04 16:46 50.67759 8.43696 37586 ft 459 kts 342°
2026-05-04 16:46 50.73970 8.41315 37967 ft 459 kts 342°
2026-05-04 16:47 50.86386 8.36548 37999 ft 459 kts 342°
2026-05-04 16:48 50.98834 8.31741 38001 ft 459 kts 341°
2026-05-04 16:49 51.04625 8.28020 38014 ft 449 kts 326°
2026-05-04 16:49 51.10103 8.23115 38016 ft 449 kts 326°
2026-05-04 16:50 51.21005 8.13409 38012 ft 449 kts 326°
2026-05-04 16:51 51.29155 8.06116 38014 ft 450 kts 326°
2026-05-04 16:52 51.40052 7.96285 38002 ft 449 kts 326°
2026-05-04 16:53 51.48329 7.89045 37993 ft 454 kts 333°
2026-05-04 16:54 51.60478 7.83027 38005 ft 457 kts 339°
2026-05-04 16:55 51.72606 7.77174 37005 ft 455 kts 338°
2026-05-04 16:55 51.78719 7.74177 35415 ft 456 kts 335°
2026-05-04 16:56 51.84150 7.69264 33967 ft 442 kts 314°
2026-05-04 16:56 51.89598 7.57751 31183 ft 430 kts 290°
2026-05-04 16:57 51.90875 7.53425 30393 ft 431 kts 290°
2026-05-04 16:57 51.93476 7.44598 29937 ft 432 kts 290°
2026-05-04 16:58 51.97303 7.31598 28375 ft 423 kts 290°
2026-05-04 16:58 51.98581 7.27251 27650 ft 421 kts 290°
2026-05-04 16:59 52.01064 7.18790 26358 ft 414 kts 291°
2026-05-04 17:00 52.05914 7.02103 23908 ft 403 kts 291°
2026-05-04 17:00 52.09439 6.89835 22133 ft 394 kts 292°
2026-05-04 17:01 52.11721 6.81800 21035 ft 389 kts 293°
2026-05-04 17:01 52.13542 6.75104 20187 ft 382 kts 284°
2026-05-04 17:02 52.13512 6.66695 19195 ft 372 kts 256°
2026-05-04 17:02 52.12286 6.58569 18121 ft 373 kts 256°
2026-05-04 17:03 52.11653 6.54315 17929 ft 397 kts 256°
2026-05-04 17:03 52.10995 6.49907 17971 ft 404 kts 256°
2026-05-04 17:03 52.09639 6.40990 17961 ft 409 kts 256°
2026-05-04 17:04 52.08253 6.32003 17968 ft 409 kts 256°
2026-05-04 17:04 52.06869 6.23039 17969 ft 409 kts 256°
2026-05-04 17:05 52.05485 6.14184 17967 ft 407 kts 256°
2026-05-04 17:05 52.04081 6.05241 17975 ft 409 kts 256°
2026-05-04 17:06 52.02670 5.96279 17963 ft 409 kts 256°
2026-05-04 17:06 52.01964 5.91809 17965 ft 409 kts 256°
2026-05-04 17:07 52.00552 5.82871 17964 ft 409 kts 256°
2026-05-04 17:07 52.00083 5.79910 17968 ft 408 kts 255°
2026-05-04 17:07 51.99138 5.73958 17965 ft 406 kts 255°
2026-05-04 17:07 51.98429 5.69520 17968 ft 407 kts 255°
2026-05-04 17:08 51.97713 5.65067 17971 ft 408 kts 255°
2026-05-04 17:08 51.96279 5.56180 17970 ft 407 kts 255°
2026-05-04 17:08 51.95564 5.51742 17904 ft 405 kts 255°
2026-05-04 17:09 51.94854 5.47352 17319 ft 402 kts 255°
2026-05-04 17:09 51.94141 5.42972 16700 ft 399 kts 255°
2026-05-04 17:09 51.93435 5.38648 16107 ft 395 kts 255°
2026-05-04 17:10 51.92033 5.30113 14849 ft 390 kts 255°
2026-05-04 17:10 51.89957 5.17502 12974 ft 382 kts 255°
2026-05-04 17:11 51.89274 5.13359 12316 ft 379 kts 255°
2026-05-04 17:11 51.88598 5.09274 11662 ft 375 kts 255°
2026-05-04 17:11 51.87271 5.01306 10963 ft 352 kts 255°
2026-05-04 17:12 51.86642 4.97553 10960 ft 341 kts 255°
2026-05-04 17:12 51.85420 4.90247 10137 ft 333 kts 254°
2026-05-04 17:13 51.83675 4.79908 9563 ft 298 kts 255°
2026-05-04 17:14 51.82094 4.70569 8667 ft 282 kts 255°
2026-05-04 17:14 51.81578 4.67526 8291 ft 280 kts 255°
2026-05-04 17:14 51.80550 4.61488 7484 ft 277 kts 255°
2026-05-04 17:15 51.80037 4.58501 7092 ft 275 kts 255°
2026-05-04 17:15 51.79034 4.52665 6631 ft 259 kts 255°
2026-05-04 17:16 51.78115 4.47319 6382 ft 236 kts 255°
2026-05-04 17:16 51.76873 4.40124 5995 ft 209 kts 255°
2026-05-04 17:17 51.76489 4.37905 5824 ft 202 kts 255°
2026-05-04 17:17 51.75415 4.31713 5363 ft 182 kts 255°
2026-05-04 17:18 51.75074 4.29743 5058 ft 183 kts 255°
2026-05-04 17:18 51.75192 4.25802 4440 ft 179 kts 300°
2026-05-04 17:19 51.77107 4.23534 3872 ft 174 kts 350°
2026-05-04 17:19 51.79398 4.22934 3459 ft 165 kts 351°
2026-05-04 17:20 51.81637 4.22325 3047 ft 162 kts 351°
2026-05-04 17:20 51.83850 4.21726 3003 ft 162 kts 351°
2026-05-04 17:20 51.84962 4.21440 3003 ft 163 kts 356°
2026-05-04 17:21 51.87016 4.22596 2908 ft 157 kts 43°
2026-05-04 17:21 51.88206 4.25380 2592 ft 142 kts 55°
2026-05-04 17:22 51.88734 4.26690 2408 ft 137 kts 55°
2026-05-04 17:22 51.89245 4.27961 2228 ft 133 kts 53°
2026-05-04 17:23 51.90743 4.31686 1689 ft 131 kts 53°
2026-05-04 17:23 51.91275 4.32997 1505 ft 142 kts 54°
2026-05-04 17:23 51.92331 4.35626 1134 ft 137 kts 53°
2026-05-04 17:24 51.92855 4.36927 913 ft 138 kts 53°
2026-05-04 17:24 51.94457 4.40917 371 ft 145 kts 53°
2026-05-04 17:25 51.95000 4.42308 151 ft 144 kts 53°
2026-05-04 17:25 51.95937 4.44638 -1 ft 83 kts 57°
2026-05-04 17:26 51.96098 4.45387 1 ft 0 kts 155°
2026-05-04 17:26 51.96097 4.45388 1 ft 1 kts 155°
2026-05-04 17:27 51.96030 4.45366 1 ft 12 kts 227°
2026-05-04 17:27 51.95903 4.45053 1 ft 18 kts 237°
2026-05-04 17:28 51.95717 4.44585 1 ft 28 kts 237°
2026-05-04 17:29 51.95407 4.43806 1 ft 23 kts 237°
2026-05-04 17:29 51.95196 4.43561 1 ft 9 kts 146°
2026-05-04 17:30 51.95078 4.43540 1 ft 1 kts 237°
2026-05-04 17:31 51.95049 4.43473 1 ft 9 kts 235°
2026-05-04 17:31 51.95095 4.43424 1 ft 0 kts 326°